K9JWM Weather Reports


Display with metric or nautical units.
time (UTC)temp
F
wind
direction
speed
MPH
gust
MPH
rain 1hr
in
rain 24hr
in
rain mn
in
humidity
%
barometer
mb
20260904115004 68 123 1.0 3.0 0.00 0.01 0.01 94 1009.3
20260904114755 68 142 1.0 3.0 0.00 0.01 0.01 94 1009.3
20260904114007 67 129 0.0 3.0 0.00 0.01 0.01 94 1009.3
20260904113054 67 136 0.0 2.0 0.00 0.01 0.01 94 1009.2
20260904113004 67 136 0.0 3.0 0.00 0.01 0.01 94 1009.2
20260904112007 67 150 0.0 2.0 0.00 0.01 0.01 94 1009.3
20260904111547 66 152 0.0 1.0 0.00 0.01 0.01 94 1009.2
20260904111004 66 152 0.0 2.0 0.00 0.01 0.01 94 1009.3
20260904110049 66 152 0.0 0.0 0.00 0.01 0.01 94 1009.3
20260904110004 66 152 0.0 1.0 0.00 0.01 0.01 94 1009.3
20260904105004 66 152 0.0 0.0 0.00 0.01 0.01 94 1009.4
20260904104549 66 152 0.0 0.0 0.00 0.01 0.01 94 1009.4
20260904104003 66 152 0.0 0.0 0.00 0.01 0.01 94 1009.5
20260904103054 66 152 0.0 0.0 0.00 0.01 0.01 94 1009.4
20260904101549 66 184 0.0 0.0 0.00 0.01 0.01 94 1009.5
20260904100048 66 128 0.0 1.0 0.00 0.01 0.01 94 1009.4
20260904100007 66 128 0.0 3.0 0.00 0.01 0.01 94 1009.4
20260904094608 66 198 0.0 0.0 0.00 0.01 0.01 93 1009.5
20260904094010 66 198 0.0 2.0 0.00 0.01 0.01 93 1009.7
20260904093057 67 253 1.0 1.0 0.00 0.01 0.01 93 1010.3
20260904093004 67 253 2.0 3.0 0.00 0.01 0.01 93 1010.3